GW0187 Weather Reports


time (UTC)temp
C
wind
direction
speed
KPH
gust
KPH
rain 1hr
cm
rain 24hr
cm
rain mn
cm
humidity
%
barometer
mb
20260506114550 7 0 0.0 0.0 0.00 0.05 0.00 91 1018.4
20260506113048 7 0 0.0 0.0 0.00 0.05 0.00 90 1018.3
20260506111549 7 0 0.0 0.0 0.00 0.05 0.00 91 1018.2
20260506110048 7 0 0.0 0.0 0.00 0.05 0.00 90 1018.3
20260506104548 8 0 0.0 0.0 0.00 0.05 0.00 90 1018.1
20260506103053 8 0 0.0 0.0 0.00 0.05 0.00 90 1018.1
20260506101552 8 0 0.0 0.0 0.00 0.05 0.00 90 1017.8
20260506100046 8 0 0.0 0.0 0.00 0.05 0.00 89 1017.9
20260506094549 8 0 0.0 0.0 0.00 0.05 0.00 89 1017.7
20260506093049 8 0 0.0 0.0 0.00 0.05 0.00 89 1017.6
20260506091547 8 0 0.0 0.0 0.00 0.05 0.00 89 1017.5
20260506090048 8 0 0.0 0.0 0.00 0.05 0.00 90 1017.8
20260506084548 8 0 0.0 0.0 0.00 0.05 0.00 91 1018.0
20260506083053 8 0 0.0 0.0 0.00 0.05 0.00 91 1018.0
20260506081554 7 0 0.0 0.0 0.00 0.05 0.00 90 1018.0
20260506073057 7 0 0.0 0.0 0.00 0.05 0.00 89 1017.8
20260506071554 7 0 0.0 0.0 0.00 0.05 0.00 88 1017.6
20260506070114 8 0 0.0 0.0 0.00 0.05 0.00 88 1017.3
20260506061549 8 0 0.0 0.0 0.00 0.05 0.05 88 1017.0
20260506044559 10 0 0.0 0.0 0.00 0.05 0.05 83 1016.3
20260506043053 10 0 0.0 0.0 0.00 0.05 0.05 84 1016.2
20260506041556 11 0 0.0 0.0 0.00 0.05 0.05 82 1015.8
20260506040100 11 0 0.0 0.0 0.00 0.05 0.05 81 1015.7
20260506034554 11 0 0.0 0.0 0.00 0.05 0.05 78 1015.5
20260506033049 12 0 0.0 0.0 0.00 0.05 0.05 77 1015.3
20260506031600 13 0 0.0 0.0 0.00 0.05 0.05 75 1015.1
20260506030111 13 0 0.0 0.0 0.00 0.05 0.05 72 1015.0
20260506024554 15 0 0.0 0.0 0.00 0.05 0.05 69 1014.9
20260506023049 16 0 0.0 3.2 0.00 0.05 0.05 65 1014.7
20260506021550 16 327 3.2 6.4 0.00 0.05 0.05 62 1014.6
20260506020052 17 348 1.6 6.4 0.00 0.05 0.05 61 1014.4
20260506014600 17 349 0.0 4.8 0.00 0.05 0.05 60 1014.3
20260506013054 17 335 1.6 8.0 0.00 0.05 0.05 60 1014.3
20260506011558 17 321 3.2 8.0 0.00 0.05 0.05 58 1014.5
20260506010058 17 331 3.2 12.9 0.00 0.05 0.05 58 1014.5
20260506004625 17 14 4.8 9.7 0.00 0.05 0.05 58 1014.5
20260506003048 17 311 0.0 8.0 0.00 0.05 0.05 57 1014.5
20260506001555 17 335 3.2 12.9 0.00 0.05 0.05 59 1014.5
20260506000050 17 331 3.2 11.3 0.00 0.05 0.05 58 1014.5
20260505234612 17 337 3.2 8.0 0.00 0.05 0.05 57 1014.4
20260505233051 17 280 1.6 12.9 0.00 0.05 0.05 56 1014.5
20260505231559 17 310 3.2 8.0 0.00 0.05 0.05 57 1014.4
20260505230052 17 266 3.2 9.7 0.00 0.05 0.05 56 1014.4
20260505224549 17 285 1.6 6.4 0.00 0.05 0.05 56 1014.4
20260505223101 18 253 3.2 8.0 0.00 0.05 0.05 55 1014.5
20260505221607 18 237 0.0 8.0 0.00 0.05 0.05 54 1014.6
20260505220133 18 209 1.6 8.0 0.00 0.05 0.05 54 1014.5
20260505214609 17 292 4.8 14.5 0.00 0.05 0.05 56 1014.6
20260505213049 17 272 3.2 16.1 0.00 0.05 0.05 55 1014.6
20260505211559 17 298 3.2 12.9 0.00 0.05 0.05 55 1014.6
20260505210051 17 225 3.2 9.7 0.00 0.05 0.05 57 1014.5
20260505204550 17 242 4.8 14.5 0.00 0.05 0.05 55 1014.4
20260505203054 18 285 3.2 14.5 0.00 0.05 0.05 54 1014.4
20260505201601 18 206 4.8 14.5 0.00 0.05 0.05 54 1014.4
20260505200100 18 165 4.8 14.5 0.00 0.05 0.05 57 1014.5
20260505194601 17 206 3.2 14.5 0.00 0.05 0.05 60 1014.6
20260505193049 17 283 3.2 16.1 0.00 0.05 0.05 62 1014.8
20260505191553 17 229 3.2 14.5 0.00 0.05 0.05 67 1014.8
20260505190051 17 238 6.4 14.5 0.00 0.05 0.05 64 1014.8
20260505184549 16 312 4.8 16.1 0.00 0.05 0.05 69 1014.7
20260505183051 15 210 6.4 16.1 0.00 0.05 0.05 73 1014.9
20260505181549 15 209 6.4 16.1 0.00 0.05 0.05 76 1015.0
20260505180051 15 195 4.8 12.9 0.00 0.05 0.05 80 1014.9
20260505174550 13 252 3.2 8.0 0.03 0.08 0.05 83 1014.8
20260505173051 13 142 0.0 4.8 0.03 0.08 0.05 87 1014.5
20260505171549 13 134 3.2 8.0 0.03 0.08 0.05 89 1014.5
20260505170049 12 0 0.0 0.0 0.03 0.08 0.05 92 1014.5
20260505164551 12 205 0.0 3.2 0.00 0.05 0.03 92 1014.5
20260505163052 11 205 1.6 6.4 0.00 0.05 0.03 92 1014.3
20260505161556 11 202 0.0 4.8 0.00 0.05 0.03 93 1014.2
20260505153051 11 0 0.0 0.0 0.00 0.05 0.03 93 1014.1
20260505151553 11 0 0.0 0.0 0.00 0.05 0.03 92 1014.0
20260505124603 11 0 0.0 0.0 0.00 0.05 0.00 91 1013.2
20260505123049 11 0 0.0 0.0 0.00 0.05 0.00 90 1013.0
20260505121553 11 0 0.0 0.0 0.00 0.05 0.00 90 1012.9
20260505120112 11 0 0.0 0.0 0.00 0.05 0.00 91 1012.9